DW0051 Weather Reports


Display with metric or nautical units.
time (UTC)temp
F
wind
direction
speed
MPH
gust
MPH
rain 1hr
in
rain 24hr
in
rain mn
in
humidity
%
barometer
mb
20260503004515 47 0.0 0.0 0.00 0.00 0.00 81 1018.5
20260503003515 47 0.0 0.0 0.00 0.00 0.00 81 1018.5
20260503002515 47 0.0 0.0 0.00 0.00 0.00 80 1018.5
20260503001517 47 0.0 0.0 0.00 0.00 0.00 80 1018.6
20260503000517 48 0.0 0.0 0.00 0.00 0.00 80 1018.7
20260502235518 48 0.0 0.0 0.00 0.00 0.00 79 1018.9
20260502234517 48 0.0 0.0 0.00 0.00 0.00 79 1019.0
20260502233517 48 0.0 0.0 0.00 0.00 0.00 79 1019.0
20260502232517 48 0.0 0.0 0.00 0.00 0.00 78 1019.1
20260502231517 49 0.0 0.0 0.00 0.00 0.00 78 1019.2
20260502230517 49 0.0 0.0 0.00 0.00 0.00 77 1019.2
20260502225517 49 0.0 0.0 0.00 0.00 0.00 77 1019.3
20260502224517 50 0.0 0.0 0.00 0.00 0.00 76 1019.4
20260502223558 50 0.0 0.0 0.00 0.00 0.00 76 1019.5
20260502222517 50 0.0 0.0 0.00 0.00 0.00 75 1019.5
20260502221516 50 0.0 0.0 0.00 0.00 0.00 75 1019.6
20260502220517 50 0.0 0.0 0.00 0.00 0.00 74 1019.6
20260502215537 50 0.0 0.0 0.00 0.00 0.00 73 1019.6
20260502214516 50 0.0 0.0 0.00 0.00 0.00 73 1019.7
20260502213537 51 0.0 0.0 0.00 0.00 0.00 73 1019.8
20260502212517 51 0.0 0.0 0.00 0.00 0.00 72 1019.8
20260502211516 51 0.0 0.0 0.00 0.00 0.00 72 1019.8
20260502210516 51 0.0 0.0 0.00 0.00 0.00 72 1020.0
20260502205517 51 0.0 0.0 0.00 0.00 0.00 72 1020.2
20260502204517 52 0.0 0.0 0.00 0.00 0.00 72 1020.2
20260502203517 52 0.0 0.0 0.00 0.00 0.00 71 1020.3
20260502202517 52 0.0 0.0 0.00 0.00 0.00 71 1020.4
20260502201517 53 0.0 0.0 0.00 0.00 0.00 69 1020.4
20260502200517 53 0.0 0.0 0.00 0.00 0.00 68 1020.4
20260502195537 54 0.0 0.0 0.00 0.00 0.00 69 1020.5
20260502194516 54 0.0 0.0 0.00 0.00 0.00 68 1020.5
20260502193516 55 0.0 0.0 0.00 0.00 0.00 67 1020.5
20260502192516 55 0.0 0.0 0.00 0.00 0.00 65 1020.6
20260502191516 56 0.0 0.0 0.00 0.00 0.00 64 1020.4
20260502190537 57 0.0 0.0 0.00 0.00 0.00 63 1020.4
20260502185516 58 0.0 0.0 0.00 0.00 0.00 62 1020.4
20260502184516 58 0.0 0.0 0.00 0.00 0.00 59 1020.4
20260502183516 59 0.0 0.0 0.00 0.00 0.00 58 1020.3
20260502182536 60 0.0 0.0 0.00 0.00 0.00 57 1020.2
20260502181516 61 0.0 0.0 0.00 0.00 0.00 56 1020.1
20260502180517 62 0.0 0.0 0.00 0.00 0.00 54 1020.1
20260502170516 70 0.0 0.0 0.00 0.00 0.00 41 1020.0
20260502163516 73 0.0 0.0 0.00 0.00 0.00 36 1020.2
20260502162536 73 0.0 0.0 0.00 0.00 0.00 36 1020.3
20260502161516 73 0.0 0.0 0.00 0.00 0.00 34 1020.4
20260502160516 74 0.0 0.0 0.00 0.00 0.00 35 1020.5
20260502151516 76 0.0 0.0 0.00 0.00 0.00 31 1021.0
20260502150536 77 0.0 0.0 0.00 0.00 0.00 30 1021.1
20260502130516 77 0.0 1.0 0.00 0.00 0.00 30 1022.3
20260502123515 76 288 0.0 2.0 0.00 0.00 0.00 30 1022.7
20260502122516 77 0.0 3.0 0.00 0.00 0.00 29 1022.8
20260502121515 78 0.0 5.0 0.00 0.00 0.00 31 1023.0
20260502120516 76 0.0 0.0 0.00 0.00 0.00 31 1023.1
20260502115515 76 105 0.0 2.0 0.00 0.00 0.00 30 1023.2
20260502113515 76 246 1.0 3.0 0.00 0.00 0.00 30 1023.5
20260502112515 76 215 1.0 6.0 0.00 0.00 0.00 32 1023.8
20260502111515 75 0.0 0.0 0.00 0.00 0.00 33 1023.9
20260502110536 75 17 1.0 3.0 0.00 0.00 0.00 32 1024.0
20260502105515 76 67 2.0 4.0 0.00 0.00 0.00 32 1024.1
20260502104515 74 203 2.0 5.0 0.00 0.00 0.00 36 1024.1
20260502103515 75 278 1.0 5.0 0.00 0.00 0.00 35 1024.2
20260502102515 73 255 1.0 3.0 0.00 0.00 0.00 34 1024.3
20260502101515 74 331 1.0 5.0 0.00 0.00 0.00 34 1024.5
20260502100536 74 92 0.0 4.0 0.00 0.00 0.00 35 1024.5
20260502091515 73 0.0 0.0 0.00 0.00 0.00 37 1025.1
20260502090515 73 359 1.0 4.0 0.00 0.00 0.00 40 1025.2
20260502071517 65 0.0 0.0 0.00 0.00 0.00 52 1026.0
20260502070517 65 216 1.0 3.0 0.00 0.00 0.00 54 1026.0
20260502065517 65 215 0.0 3.0 0.00 0.00 0.00 54 1026.0
20260502064518 64 0.0 0.0 0.00 0.00 0.00 59 1025.9
20260502063517 62 0.0 0.0 0.00 0.00 0.00 62 1025.9
20260502062517 60 0.0 0.0 0.00 0.00 0.00 65 1026.0
20260502060517 57 0.0 0.0 0.00 0.00 0.00 69 1026.1
20260502055517 56 0.0 0.0 0.00 0.00 0.00 71 1026.2
20260502054517 54 0.0 0.0 0.00 0.00 0.00 74 1026.1
20260502053517 51 0.0 0.0 0.00 0.00 0.00 78 1026.2
20260502052517 49 0.0 0.0 0.00 0.00 0.00 81 1026.2
20260502051517 47 0.0 0.0 0.00 0.00 0.00 86 1026.3
20260502050517 44 0.0 0.0 0.00 0.00 0.00 90 1026.2
20260502045537 43 0.0 0.0 0.00 0.00 0.00 92 1026.0
20260502044517 42 0.0 0.0 0.00 0.00 0.00 91 1025.9
20260502043517 41 0.0 0.0 0.00 0.00 0.00 91 1025.9
20260502042517 41 0.0 0.0 0.00 0.00 0.00 92 1025.9
20260502041517 41 0.0 0.0 0.00 0.00 0.00 91 1026.0
20260502040516 41 0.0 0.0 0.00 0.00 0.00 91 1026.0
20260502035516 41 0.0 0.0 0.00 0.00 0.00 91 1026.0
20260502034517 41 0.0 0.0 0.00 0.00 0.00 91 1026.0
20260502033516 41 0.0 0.0 0.00 0.00 0.00 91 1025.9
20260502032516 41 0.0 0.0 0.00 0.00 0.00 90 1025.8
20260502031517 41 0.0 0.0 0.00 0.00 0.00 90 1025.8
20260502030557 41 0.0 0.0 0.00 0.00 0.00 90 1025.7
20260502025516 42 0.0 0.0 0.00 0.00 0.00 90 1025.7
20260502024536 42 0.0 0.0 0.00 0.00 0.00 89 1025.8
20260502023516 42 0.0 0.0 0.00 0.00 0.00 89 1025.8
20260502022516 42 0.0 0.0 0.00 0.00 0.00 89 1025.8
20260502021517 42 0.0 0.0 0.00 0.00 0.00 88 1025.9
20260502020537 42 0.0 0.0 0.00 0.00 0.00 88 1025.9
20260502015516 42 0.0 0.0 0.00 0.00 0.00 88 1025.9
20260502014516 43 0.0 0.0 0.00 0.00 0.00 88 1025.9
20260502013517 43 0.0 0.0 0.00 0.00 0.00 87 1025.9
20260502012516 43 0.0 0.0 0.00 0.00 0.00 87 1026.0
20260502011516 43 0.0 0.0 0.00 0.00 0.00 86 1026.0
20260502010517 43 0.0 0.0 0.00 0.00 0.00 86 1026.2
20260502005516 44 0.0 0.0 0.00 0.00 0.00 86 1026.2